Location: Castrojimeno
(41.3966°N, 3.8473°W)
Time: 08:30:29
(UTC+00:00)

Cosmos 2180 Rocket - Pass Details

Date: 15 May 2026
Orbit: 954 x 1003 km, 82.9° (Epoch: 6 June)

Event Time Altitude Azimuth Distance (km) Brightness Sun altitude
Exits shadow 23:32:26 83° 139° (SE) 993 4.3 -28.9°
Maximum altitude 23:32:38 85° 96° (E) 990 4.4 -28.9°
Drops below altitude 10° 23:38:59 10° 9° (N) 2,759 7.7 -29.1°
Sets 23:41:31 0° 9° (N) 3,718 8.6 -29.1°
